Simultaneous Nadir Overpasses (SNOs) Predictions

Prediction of SNOs between LANDSAT-8 and METOP-B Satellite Orbit:

Table of predicted SNOs for the next 14.0 days since TLE Epoch: 1/14/2017
Index Date (LANDSAT-8) Time (LANDSAT-8) Lat,Lon (LANDSAT-8) SZA (LANDSAT-8 ) Date (METOP-B) Time (METOP-B) Lat,Lon (METOP-B) SZA (METOP-B ) Distance(km) Time Diff (sec)
1 01/15/2017 11:44:59 -81.10,-136.86 76.20 01/15/2017 11:44:34 -81.10,-136.76 76.20 1.85 25
2 01/15/2017 12:34:25 81.11, 30.87 103.81 01/15/2017 12:35:14 81.10, 30.70 103.81 2.84 49
3 01/18/2017 07:19:14 -81.09, -70.65 76.81 01/18/2017 07:18:55 -81.09, -70.49 76.79 2.96 19
4 01/18/2017 08:08:39 81.11, 97.42 103.25 01/18/2017 08:09:34 81.11, 97.34 103.27 1.33 55
5 01/21/2017 02:53:28 -81.09, -4.11 77.41 01/21/2017 02:53:16 -81.09, -4.24 77.43 2.26 12
6 01/21/2017 03:42:53 81.12, 163.93 102.64 01/21/2017 03:43:54 81.12, 163.96 102.67 0.49 61
7 01/23/2017 22:27:41 -81.10, 62.40 78.07 01/23/2017 22:27:35 -81.10, 62.37 78.07 0.55 6
8 01/23/2017 23:17:06 81.12,-129.58 101.98 01/23/2017 23:18:13 81.13,-129.43 102.02 2.62 67
9 01/26/2017 17:12:29 81.07, -39.15 101.18 01/26/2017 17:11:16 81.07, -39.20 101.15 0.93 73
10 01/26/2017 18:01:55 -81.10, 128.87 78.78 01/26/2017 18:01:55 -81.10, 128.95 78.76 1.48 0




NCC Satellite Simultaneous Nadir Overpasses (SNOs) Prediction Service
